Regional Weather Roundup
Issued by NWS

Home | Current Version | Previous Version | Graphics & Text | Print | Product List | Glossary On
Versions: 1 2 3 4 5 6 7 8 9 10 11 12 13 14 15 16 17 18 19 20 21 22 23 24 25 26 27 28 29 30 31 32 33 34 35 36 37 38 39 40 41 42 43 44 45 46 47 48 49 50
000
ASUS45 KSLC 270910
RWRUT

UTAH REGIONAL WEATHER ROUNDUP
NATIONAL WEATHER SERVICE SALT LAKE CITY UT
300 AM MDT SAT MAY 27 2017

UTZ001>011-023>025-271000-

NORTHERN UTAH

CITY           SKY/WX    TMP DP  RH WIND       PRES   REMARKS
BRIGHAM CITY   CLEAR     46  37  73 SW7       30.12S
HILL AFB       CLEAR     45  35  67 E3        30.10S
LOGAN          CLEAR     44  38  79 CALM      30.13R
OGDEN          CLEAR     45  35  68 CALM      30.10R
SALT LAKE CITY NOT AVBL
TOOELE VALLEY  CLEAR     41  37  87 CALM      30.13R
WENDOVER       CLEAR     51  36  56 CALM      30.13S
HEBER CITY     PTCLDY    36  30  80 CALM      30.08S
WEST JORDAN    CLEAR     45  43  93 CALM      30.12R

$$

UTZ011>015-024>027-271000-

CENTRAL/NORTHEAST UTAH

CITY           SKY/WX    TMP DP  RH WIND       PRES   REMARKS
PROVO AIRPORT  PTCLDY    51  39  63 N7        30.10R
MOAB/CANYONLAN PTCLDY    60  26  27 NW10      29.97R
DELTA          MOCLDY    50  34  53 NW6       30.10R
PRICE          MOCLDY    53  27  36 N15       30.04F
ROOSEVELT      CLOUDY    54  37  54 E14       30.04R
VERNAL         CLOUDY    52  37  56 CALM      30.04S

$$

UTZ013>016-019>022-027-271000-

SOUTHERN UTAH

CITY           SKY/WX    TMP DP  RH WIND       PRES   REMARKS
BRYCE CANYON   CLEAR     43  30  60 N6        30.15R
CEDAR CITY     CLEAR     50  32  50 N8        30.09R
MILFORD        CLOUDY    52  34  50 N8        30.09R
ST GEORGE      MOSUNNY   71  35  26 NE17G33   29.91R
HANKSVILLE     MOCLDY    61  30  31 NW15      30.04R
BLANDING       CLEAR     50  24  36 N9        30.07R

$$

REGIONAL REPORTS     COLORADO/ARIZONA

CITY           SKY/WX    TMP DP  RH WIND       PRES   REMARKS
CRAIG, CO      LGT RAIN  44  38  79 E7        30.10F
GRAND JUNCTION CLEAR     57  36  45 CALM      29.99R
RIFLE, CO      CLOUDY    53  40  61 NW16      30.03R
MONTROSE, CO   CLEAR     57  33  40 NW5       30.01R
CORTEZ, CO     CLEAR     60  22  23 S15G24    30.02R
COLORADO CITY    N/A     46  27  46 SE6       30.04S
PAGE, AZ       CLEAR     68  20  16 NW5       29.95R
GRAND CANYON   CLEAR     37  25  61 CALM      30.13S
KINGMAN, AZ    CLEAR     55  22  27 S8        29.94S
FLAGSTAFF, AZ  CLEAR     41  21  44 W6        30.15S

$$

REGIONAL REPORTS    NEVADA/IDAHO/WYOMING

CITY           SKY/WX    TMP DP  RH WIND       PRES   REMARKS
LAS VEGAS, NV  CLEAR     76  18  11 S9        29.83R
ELY, NY        PTCLDY    41  24  51 NW3       30.16R
ELKO, NV       CLEAR     41  33  73 CALM      30.15R
POCATELLO, ID  CLEAR     39  38  96 CALM      30.14R
BURLEY, ID     CLEAR     39  37  92 CALM      30.12R
FORT BRIDGER,  CLOUDY    39  32  75 W8        30.16S WCI  34
EVANSTON, WY   CLOUDY    37  32  82 N5        30.14R WCI  33
ROCK SPRINGS,  CLOUDY    37  34  89 NE6       30.10R WCI  32
KEMMERER, WY     N/A     34  32  93 NW6       30.13R WCI  29

$$



USA.gov is the U.S. government's official web portal to all federal, state and local government web resources and services.